Location: Bastelaar
(51.0950°N, 3.8602°E)
Time: 02:20:21
(UTC+00:00)

ARIANE 6 FM1 Upper Stage - Pass Details

Date: 30 January 2026
Orbit: 522 x 609 km, 62.0° (Epoch: 13 February)

Event Time Altitude Azimuth Distance (km) Brightness Sun altitude
Rises 17:32:42 0° 240° (WSW) 2,699 8.0 -9.7°
Reaches altitude 10° 17:34:58 10° 245° (WSW) 1,797 6.8 -10.0°
Maximum altitude 17:38:55 53° 323° (NW) 663 3.2 -10.6°
Enters shadow 17:42:36 11° 41° (NE) 1,691 4.6 -11.2°
